This is the latest recevied weather packets stored in our database for station/object KC8JWT. If no packets are shown the sender has not sent any weather packets the latest 10 day(s).
| Time | Temp. | Humidity | Pressure | Rain* | Wind** | Luminosity | Snow |
|---|---|---|---|---|---|---|---|
| 1777335796 | 21.11° C | 65% | 1014.3 hPa | 0 mm | - | 0 W/m² | - |
| 1777335494 | 21.11° C | 64% | 1014.5 hPa | 0 mm | - | 0 W/m² | - |
| 1777335190 | 21.67° C | 64% | 1014.4 hPa | 0 mm | - | 0 W/m² | - |
| 1777334888 | 21.67° C | 64% | 1014.3 hPa | 0 mm | - | 0 W/m² | - |
| 1777334586 | 21.67° C | 63% | 1014.5 hPa | 0 mm | - | 2 W/m² | - |
| 1777334283 | 22.22° C | 60% | 1014.6 hPa | 0 mm | - | 2 W/m² | - |
| 1777333981 | 22.22° C | 58% | 1014.7 hPa | 0 mm | - | 3 W/m² | - |
| 1777333679 | 22.78° C | 57% | 1014.7 hPa | 0 mm | - | 5 W/m² | - |
| 1777333375 | 22.78° C | 56% | 1014.5 hPa | 0 mm | - | 6 W/m² | - |
| 1777333073 | 23.33° C | 56% | 1014.5 hPa | 0 mm | - | 8 W/m² | - |
| 1777332771 | 23.89° C | 54% | 1014.3 hPa | 0 mm | - | 10 W/m² | - |
| 1777332468 | 23.89° C | 50% | 1014.5 hPa | 0 mm | - | 12 W/m² | - |
| 1777332164 | 24.44° C | 49% | 1014.4 hPa | 0 mm | - | 14 W/m² | - |
| 1777331861 | 24.44° C | 48% | 1014.3 hPa | 0 mm | - | 22 W/m² | - |
| 1777331558 | 25° C | 48% | 1014.6 hPa | 0 mm | - | 28 W/m² | - |
| 1777331256 | 25° C | 46% | 1014.5 hPa | 0 mm | - | 32 W/m² | - |
| 1777330953 | 25° C | 46% | 1014.4 hPa | 0 mm | - | 39 W/m² | - |
| 1777330644 | 25° C | 46% | 1014.6 hPa | 0 mm | - | 45 W/m² | - |
| 1777330341 | 25° C | 45% | 1014.6 hPa | 0 mm | - | 51 W/m² | - |
| 1777330039 | 25.56° C | 45% | 1014.6 hPa | 0 mm | - | 52 W/m² | - |
| 1777329732 | 25.56° C | 45% | 1014.6 hPa | 0 mm | - | 56 W/m² | - |
| 1777329430 | 25.56° C | 44% | 1014.6 hPa | 0 mm | - | 63 W/m² | - |
| 1777329128 | 25.56° C | 44% | 1014.8 hPa | 0 mm | - | 75 W/m² | - |
| 1777328824 | 25.56° C | 43% | 1014.9 hPa | 0 mm | - | 88 W/m² | - |
| 1777328522 | 25.56° C | 43% | 1015 hPa | 0 mm | - | 101 W/m² | - |
* Rain latest hour (hover to see other rain measurements)
** Current wind speed in m/s (hover to see current wind gust speed)